Location: Untermarchtal
(48.2403°N, 9.6117°E)
Time: 01:12:45
(UTC+02:00)

ISS - Visible Passes

Search period start: 27 May 2018 00:00
Search period end: 06 June 2018 00:00
Orbit: 402 x 407 km, 51.6° (Epoch: 27 May)

Date Brightness Start Highest point End Pass type
(mag) Time Alt. Az. Time Alt. Az. Time Alt. Az.
27 May -3.2 00:21:49 10° WNW 00:25:02 54° NNE 00:26:26 29° ENE visible
27 May -1.4 01:58:22 10° WNW 01:59:03 15° W 01:59:03 15° W visible
27 May -3.0 21:52:43 10° W 21:55:57 55° NNW 21:59:11 10° ENE visible
27 May -2.8 23:29:35 10° WNW 23:32:45 46° N 23:35:44 11° E visible
28 May -2.9 01:06:06 10° WNW 01:08:21 39° W 01:08:21 39° W visible
28 May -2.6 22:37:17 10° WNW 22:40:26 43° N 22:43:36 10° ENE visible
29 May -3.8 00:13:53 10° WNW 00:17:11 80° NNE 00:17:42 59° E visible
29 May -3.3 23:21:40 10° WNW 23:24:55 59° NNE 23:27:06 19° E visible
30 May -2.0 00:58:16 10° WNW 00:59:44 22° W 00:59:44 22° W visible
30 May -2.9 22:29:24 10° WNW 22:32:36 48° N 22:35:48 10° E visible
31 May -3.8 00:05:56 10° WNW 00:09:09 59° SSW 00:09:09 59° SSW visible
31 May -3.9 23:13:39 10° WNW 23:16:57 90° S 23:18:36 27° ESE visible
01 Jun -1.3 00:50:40 10° W 00:51:13 13° W 00:51:13 13° W visible
01 Jun -3.5 22:21:23 10° WNW 22:24:39 65° NNE 22:27:55 10° E visible
01 Jun -2.7 23:58:03 10° W 00:00:41 30° SW 00:00:41 30° SW visible
02 Jun -3.5 23:05:38 10° WNW 23:08:50 50° SSW 23:10:11 29° SSE visible
03 Jun -3.8 22:13:18 10° WNW 22:16:35 79° SSW 22:19:41 11° ESE visible
03 Jun -1.7 23:50:33 10° W 23:52:20 16° SW 23:52:20 16° SW visible
04 Jun -2.4 22:57:45 10° W 23:00:33 26° SW 23:01:52 20° S visible
05 Jun -3.1 22:05:15 10° WNW 22:08:23 42° SSW 22:11:26 10° SE visible
